Regional Weather Roundup
Issued by NWS State College, PA

Home | Current Version | Previous Version | Text Only | Print | Product List | Glossary On
Versions: 1 2 3 4 5 6 7 8 9 10 11 12 13 14 15 16 17 18 19 20 21 22 23 24 25 26 27 28 29 30 31 32 33 34 35 36 37 38 39 40 41 42 43 44 45 46 47 48 49 50
000
ASUS41 KCTP 260010
RWRCTP

REGIONAL WEATHER ROUNDUP
NATIONAL WEATHER SERVICE STATE COLLEGE PA
700 PM EST TUE NOV 25 2014

Note: "fair" indicates few or no clouds below 12,000 feet with no
significant weather and/or obstructions to visibility.

* = STATION THAT DOES NOT REPORT PRECIPITATION /E.G. RAIN...SNOW...ETC/
    THUNDER OR FOG.

PAZ002>004-007>009-013>016-020>023-029>032-260100-
WESTERN PENNSYLVANIA

CITY           SKY/WX    TMP DP  RH WIND       PRES   REMARKS
ERIE           LGT RAIN  36  28  73 W9G21     30.14R
MEADVILLE      CLOUDY    34  24  67 SW5       30.12R
FRANKLIN*      CLOUDY    34  21  60 W9        30.13R
NEW CASTLE       N/A     36  25  65 CALM      30.16R
BEAVER COUNTY  CLEAR     34  25  69 NW5       30.13R
BUTLER*        CLEAR     34  25  69 W5        30.15R
PITTSBURGH INT CLEAR     36  26  67 NW7       30.14R
PITTSBURGH     CLEAR     38  24  57 NW8       30.12R
INDIANA*       CLEAR     39  27  60 NW5G16    30.16R
LATROBE        CLEAR     41  28  60 NW7       30.15R
WASHINGTON CO* CLEAR     36  25  64 CALM      30.15R
$$

PAZ004>006-010>012-017>019-024>028-033>037-041-042-045-046-049>053-260100-
CENTRAL PENNSYLVANIA

CITY           SKY/WX    TMP DP  RH WIND       PRES   REMARKS
BRADFORD       CLOUDY    35  23  61 W10G21    30.07R
DUBOIS         CLEAR     33  26  75 W7        30.09R
CLEARFIELD     CLEAR     38  27  64 NW10      30.09R
JOHNSTOWN      CLEAR     39  25  57 W12       30.07R
ALTOONA        CLEAR     41  28  60 W8        30.09R
STATE COLLEGE  CLEAR     41  28  60 W7        30.09R
WILLIAMSPORT   CLEAR     41  27  57 CALM      30.07R
SELINSGROVE    CLEAR     33  29  85 CALM      30.09R
FT INDIANTOWN  PTCLDY    38  29  72 CALM      30.09R
CAPITAL CITY   PTCLDY    44  30  57 CALM      30.10R
HARRISBURG     MOCLDY    39  29  67 CALM      30.09R
YORK           PTCLDY    35  29  78 CALM      30.09R
$$

PAZ038>040-043-044-047-048-054-055-060>062-067>071-260100-
EASTERN PENNSYLVANIA

CITY           SKY/WX    TMP DP  RH WIND       PRES   REMARKS
SCRANTON       CLEAR     44  26  49 SW5       30.06R
MOUNT POCONO   CLEAR     39  26  59 W8        30.04R
ALLENTOWN      CLEAR     41  27  57 SW3       30.08R
QUAKERTOWN*    PTCLDY    37  30  75 CALM      30.09R
READING        CLEAR     46  28  49 CALM      30.08R
LANCASTER      PTCLDY    40  29  64 W3        30.09R
COATESVILLE    PTCLDY    45  30  57 CALM      30.09R
POTTSTOWN      CLEAR     40  30  67 CALM      30.10R
BLUE BELL      MOCLDY    43  34  70 CALM      30.08R
DOYLESTOWN     MOCLDY    41  31  67 CALM      30.08R
WILLOW GROVE   NOT AVBL
NORTH PHILA    MOCLDY    49  30  48 W3        30.11R
PHILADELPHIA   CLOUDY    50  31  48 SW8       30.11R
$$


USA.gov is the U.S. government's official web portal to all federal, state and local government web resources and services.